[[{"header":{"parameterUnit":"m.s-1","parameterCategory":1,"la1":30.2991,"la2":30.254,"lo1":-89.0895,"lo2":-89.0444,"dy":0.0017,"dx":0.0017,"nx":28,"ny":28,"refTime":"2024-03-25T21:00:00:Z","depth":0,"parameterNumber":2,"parameterNumberName":"U-component_of_WINDS"},"data":[0,0,0,0,0,0,0,0,0,0,0,0,0,0,0,0,0,0,0,0,0,0,0,0,0,0,0,0,0,0,0,0,0,0,0,0,0,0,0,0,0,0,0,0,0,0,0,0,0,0,0,0,0,0,0,0,0,0,0.4563,0.4563,0,0.454,0.4539,0.4539,0.4521,0.4521,0.4521,0.452,0.4494,0.4494,0.4493,0,0,0,0,0,0,0,0,0,0,0,0,0,0.4591,0.459,0.4563,0.4563,0.4562,0.454,0.4539,0.4539,0.4521,0.4521,0.4521,0.452,0.4494,0.4494,0.4493,0,0,0,0,0,0,0,0,0,0,0,0,0,0.4574,0.459,0.4563,0.4551,0.4549,0.454,0.4539,0.4539,0.4521,0.4521,0.4521,0.452,0.4495,0.4494,0.4493,0.4493,0,0,0.449,0.449,0,0,0,0,0,0,0,0,0.4575,0.4573,0.4553,0.4552,0.455,0.4533,0.4539,0.4523,0.4521,0.4532,0.452,0.452,0.4507,0.4505,0.4501,0.4492,0.449,0.449,0.449,0.449,0.4489,0,0,0,0,0,0,0,0.4576,0.4574,0.4554,0.4553,0.4551,0.4546,0.4543,0.4536,0.4521,0.4531,0.4529,0.4527,0.4506,0.4502,0.4501,0.449,0.449,0.449,0.4489,0.4489,0.4479,0.4479,0,0,0,0,0,0,0.458,0.4575,0.4554,0.4553,0.4562,0.4546,0.4543,0.4539,0.4521,0.4518,0.4527,0.4526,0.4504,0.4502,0.45,0.4498,0.449,0.4489,0.4488,0.4479,0.4479,0.4479,0,0,0,0,0,0,0.458,0.4578,0.4555,0.4564,0.456,0.4545,0.4541,0.4538,0.4534,0.4518,0.4515,0.4526,0.4503,0.4501,0.4495,0.4497,0.4488,0.4488,0.4479,0.4479,0.4479,0.4496,0,0,0,0,0,0,0.4581,0.4578,0.4578,0.4564,0.456,0.4552,0.4541,0.4538,0.4533,0.4532,0.4516,0.4514,0.4503,0.4496,0.4494,0.4496,0.4487,0.4478,0.4479,0.4479,0.4495,0.4497,0.4498,0,0,0,0,0,0.4582,0.4583,0.4578,0.4576,0.456,0.4552,0.4549,0.4538,0.4533,0.4533,0.4523,0.4514,0.4497,0.4496,0.4493,0.4495,0.4478,0.4479,0.4479,0.4494,0.4496,0.4498,0,0,0,0,0,0,0.4597,0.4581,0.4576,0.4572,0.4564,0.4549,0.4548,0.454,0.4532,0.4531,0.4517,0.4513,0.4509,0.4501,0.45,0.4494,0.4487,0.4487,0.4499,0.4501,0.4502,0.4504,0.4486,0,0,0,0,0,0.4601,0.4596,0.4582,0.458,0.4576,0.4563,0.4559,0.4551,0.4541,0.4537,0.4527,0.4517,0.4509,0.4505,0.4497,0.4494,0.449,0.4494,0.4495,0.4497,0.4497,0.4495,0.4496,0.4481,0.4481,0.4481,0,0,0.4607,0.4597,0.4595,0.4583,0.4575,0.457,0.456,0.4555,0.4551,0.4536,0.453,0.4522,0.451,0.4506,0.4503,0.4499,0.45,0.4497,0.4499,0.4498,0.4495,0.4497,0.4498,0.4482,0.4482,0.4481,0,0,0.4615,0.4608,0.4606,0.4599,0.4588,0.4579,0.4579,0.4565,0.456,0.4554,0.4543,0.4537,0.4525,0.4517,0.4511,0.4518,0.4509,0.4516,0.4524,0.4522,0.4523,0.4524,0.4526,0.4527,0.4516,0.4516,0.4516,0,0.4624,0.4617,0.4606,0.4602,0.4596,0.4584,0.4582,0.4575,0.4562,0.4558,0.4554,0.4539,0.453,0.4523,0.4525,0.4521,0.452,0.4517,0.4524,0.4525,0.4525,0.4527,0.4528,0.4517,0.4517,0.4517,0.4516,0,0.4628,0.4623,0.4623,0.4611,0.4606,0.4603,0.4591,0.4587,0.458,0.4571,0.4565,0.4555,0.4544,0.4542,0.4535,0.4535,0.4533,0.4527,0.4519,0.4528,0.4529,0.453,0.4518,0.4518,0.4517,0.4517,0,0,0.4645,0.4628,0.4628,0.4623,0.461,0.4606,0.4602,0.4593,0.459,0.4581,0.4578,0.4568,0.4562,0.4556,0.4547,0.4546,0.4551,0.4539,0.4539,0.4542,0.4551,0.4555,0.4556,0.4546,0.4546,0.4546,0.4552,0,0.4651,0.4644,0.4635,0.4631,0.4626,0.4614,0.4611,0.4603,0.4595,0.4589,0.4581,0.4574,0.4567,0.4563,0.4561,0.4551,0.4553,0.4551,0.4541,0.4541,0.4544,0.4557,0.4562,0.4568,0.4552,0.4552,0.4552,0,0.4657,0.4651,0.4647,0.4635,0.4632,0.463,0.4621,0.4616,0.4606,0.4601,0.4594,0.4585,0.458,0.4574,0.4567,0.4565,0.4561,0.4556,0.4556,0.4554,0.4547,0.4555,0.4569,0.457,0.4553,0.4553,0.4553,0,0.467,0.4659,0.4656,0.4652,0.4638,0.4636,0.463,0.462,0.4616,0.4608,0.4605,0.4596,0.4592,0.4585,0.4574,0.457,0.4568,0.456,0.4562,0.4563,0.4562,0.4562,0.4575,0.456,0.456,0.456,0.456,0,0.4678,0.4676,0.4661,0.4659,0.4656,0.4645,0.4643,0.4635,0.4627,0.4623,0.4612,0.4608,0.4594,0.4588,0.4579,0.4575,0.4573,0.4568,0.4565,0.4568,0.4569,0.4565,0.4564,0.456,0.456,0.456,0.456,0,0.4691,0.4681,0.4676,0.4664,0.4661,0.466,0.4649,0.4646,0.4638,0.4633,0.4631,0.4618,0.4611,0.46,0.4589,0.4583,0.4579,0.4576,0.4583,0.4581,0.4584,0.4584,0.4594,0.4595,0.458,0.458,0.458,0,0.4696,0.4694,0.4682,0.4679,0.4674,0.4669,0.4664,0.4653,0.4649,0.4638,0.4637,0.4629,0.4622,0.4611,0.46,0.4592,0.4588,0.4592,0.4586,0.459,0.4587,0.4587,0.4587,0.4593,0.4593,0.4594,0.4594,0,0.4707,0.4702,0.4697,0.469,0.4685,0.4679,0.4672,0.4669,0.4657,0.4652,0.4645,0.464,0.463,0.4622,0.4612,0.4606,0.4597,0.4596,0.4596,0.4599,0.4603,0.46,0.4586,0.4595,0.4595,0.4595,0.4595,0.4595,0.4716,0.4714,0.4705,0.4699,0.4693,0.4687,0.4684,0.4676,0.4671,0.4662,0.4655,0.4649,0.4639,0.4626,0.462,0.4614,0.461,0.461,0.461,0.461,0.4611,0.4604,0.4612,0.4612,0.4612,0.4612,0.4612,0,0.4726,0.472,0.4715,0.4706,0.4701,0.4695,0.4687,0.4684,0.4678,0.467,0.4664,0.4656,0.4649,0.4638,0.463,0.4627,0.4623,0.4626,0.4625,0.4624,0.4615,0.4616,0.4629,0.4629,0.4629,0.4629,0.4629,0.4629,0.473,0.4727,0.4721,0.4715,0.4708,0.4703,0.4699,0.4693,0.4687,0.4679,0.4673,0.4666,0.4657,0.4648,0.4641,0.4638,0.4635,0.4638,0.4634,0.4626,0.4624,0.4623,0.4623,0.4638,0.4638,0.4643,0.4643,0.4643]},{"header":{"parameterUnit":"m.s-1","parameterCategory":1,"la1":30.2991,"la2":30.254,"lo1":-89.0895,"lo2":-89.0444,"dy":0.0017,"dx":0.0017,"nx":28,"ny":28,"refTime":"2024-03-25T21:00:00:Z","depth":0,"parameterNumber":3,"parameterNumberName":"V-component_of_WINDS"},"data":[0,0,0,0,0,0,0,0,0,0,0,0,0,0,0,0,0,0,0,0,0,0,0,0,0,0,0,0,0,0,0,0,0,0,0,0,0,0,0,0,0,0,0,0,0,0,0,0,0,0,0,0,0,0,0,0,0,0,-3.0974,-3.0976,0,-3.1137,-3.1139,-3.1141,-3.1172,-3.1171,-3.1169,-3.1168,-3.1333,-3.1339,-3.1344,0,0,0,0,0,0,0,0,0,0,0,0,0,-3.0689,-3.0694,-3.0974,-3.0976,-3.0978,-3.1137,-3.1139,-3.1142,-3.1172,-3.1171,-3.1169,-3.1167,-3.1332,-3.1338,-3.1345,0,0,0,0,0,0,0,0,0,0,0,0,0,-3.0828,-3.0696,-3.0973,-3.1012,-3.1017,-3.1137,-3.1139,-3.1142,-3.1172,-3.117,-3.1169,-3.1167,-3.1329,-3.1338,-3.1346,-3.1437,0,0,-3.1372,-3.1375,0,0,0,0,0,0,0,0,-3.082,-3.0839,-3.1005,-3.101,-3.1016,-3.1132,-3.11,-3.1241,-3.1173,-3.1114,-3.1168,-3.1166,-3.1268,-3.1281,-3.1316,-3.1445,-3.1452,-3.1372,-3.1378,-3.1381,-3.1384,0,0,0,0,0,0,0,-3.0811,-3.0832,-3.1038,-3.1007,-3.1014,-3.1022,-3.104,-3.1126,-3.12,-3.1119,-3.1121,-3.114,-3.1271,-3.1308,-3.132,-3.1454,-3.1372,-3.138,-3.1385,-3.1388,-3.1669,-3.1672,0,0,0,0,0,0,-3.0794,-3.0824,-3.1033,-3.1043,-3.0911,-3.1029,-3.1048,-3.1097,-3.1199,-3.1213,-3.1142,-3.1141,-3.1295,-3.131,-3.1326,-3.1442,-3.1381,-3.1389,-3.1394,-3.1667,-3.167,-3.1673,0,0,0,0,0,0,-3.0788,-3.0813,-3.1027,-3.0934,-3.0962,-3.1036,-3.109,-3.1101,-3.1138,-3.1216,-3.1229,-3.1166,-3.1294,-3.1314,-3.141,-3.1448,-3.1393,-3.14,-3.1664,-3.1668,-3.1671,-3.1672,0,0,0,0,0,0,-3.078,-3.081,-3.0845,-3.0935,-3.0967,-3.1107,-3.1092,-3.1106,-3.1153,-3.1154,-3.1243,-3.1256,-3.1294,-3.1398,-3.1419,-3.1458,-3.1407,-3.1661,-3.1666,-3.167,-3.1669,-3.1675,-3.168,0,0,0,0,0,-3.0769,-3.0838,-3.0847,-3.0872,-3.1012,-3.111,-3.1128,-3.1171,-3.1156,-3.1192,-3.1243,-3.1253,-3.144,-3.1407,-3.1431,-3.1474,-3.1659,-3.1665,-3.167,-3.1666,-3.1674,-3.168,0,0,0,0,0,0,-3.0749,-3.085,-3.0861,-3.096,-3.1026,-3.1115,-3.1161,-3.1177,-3.1248,-3.1245,-3.1295,-3.1315,-3.1408,-3.1451,-3.1412,-3.1569,-3.1549,-3.1559,-3.1538,-3.1546,-3.1551,-3.1539,-3.1414,0,0,0,0,0,-3.0756,-3.0827,-3.0911,-3.0991,-3.1023,-3.1087,-3.1131,-3.1158,-3.1228,-3.1256,-3.1313,-3.1381,-3.1455,-3.1503,-3.1575,-3.1675,-3.1696,-3.1717,-3.1723,-3.1727,-3.1735,-3.1794,-3.1805,-3.169,-3.169,-3.169,0,0,-3.0771,-3.0835,-3.0876,-3.0988,-3.1043,-3.1115,-3.111,-3.1186,-3.1241,-3.1267,-3.1362,-3.1407,-3.1485,-3.1584,-3.1631,-3.1623,-3.1772,-3.1734,-3.1737,-3.1743,-3.1801,-3.1811,-3.1821,-3.1694,-3.1693,-3.1693,0,0,-3.0836,-3.0891,-3.0964,-3.102,-3.1103,-3.1145,-3.1163,-3.125,-3.1281,-3.1377,-3.14,-3.1465,-3.1592,-3.1648,-3.1692,-3.1783,-3.1795,-3.1805,-3.1835,-3.1891,-3.19,-3.1908,-3.1942,-3.1953,-3.1813,-3.1813,-3.1813,0,-3.0844,-3.0954,-3.1,-3.1077,-3.1126,-3.1155,-3.1231,-3.1282,-3.1384,-3.1418,-3.1408,-3.1569,-3.1624,-3.1738,-3.176,-3.1795,-3.1818,-3.1794,-3.1895,-3.1904,-3.1912,-3.1945,-3.1957,-3.1814,-3.1814,-3.1814,-3.1814,0,-3.0961,-3.1037,-3.1087,-3.1186,-3.1241,-3.1316,-3.1375,-3.1425,-3.1449,-3.1493,-3.1591,-3.1659,-3.1747,-3.1776,-3.1799,-3.1894,-3.1886,-3.1885,-3.1866,-3.1923,-3.1954,-3.1967,-3.1815,-3.1814,-3.1814,-3.1814,0,0,-3.1014,-3.1141,-3.1158,-3.1205,-3.1301,-3.1361,-3.1439,-3.1526,-3.1569,-3.1639,-3.1706,-3.1815,-3.1815,-3.1866,-3.1896,-3.1946,-3.2015,-3.1939,-3.1942,-3.1951,-3.2126,-3.2126,-3.214,-3.2025,-3.2027,-3.2029,-3.212,0,-3.1091,-3.1231,-3.1276,-3.1393,-3.1465,-3.1496,-3.1564,-3.163,-3.1674,-3.1742,-3.1791,-3.1867,-3.1861,-3.1893,-3.1943,-3.1996,-3.2051,-3.199,-3.2088,-3.2091,-3.2067,-3.2156,-3.2156,-3.2237,-3.2132,-3.2134,-3.2136,0,-3.1198,-3.1272,-3.1396,-3.1486,-3.1518,-3.1578,-3.1663,-3.1728,-3.1804,-3.1833,-3.1892,-3.1919,-3.2003,-3.198,-3.2096,-3.2054,-3.2097,-3.2129,-3.2134,-3.2144,-3.2116,-3.2169,-3.2264,-3.2277,-3.2155,-3.2153,-3.2152,0,-3.1226,-3.1357,-3.1448,-3.1487,-3.1593,-3.1636,-3.1682,-3.1757,-3.1807,-3.1882,-3.1916,-3.1999,-3.2044,-3.2108,-3.2158,-3.2136,-3.2271,-3.2251,-3.2297,-3.2296,-3.2323,-3.2321,-3.2427,-3.2351,-3.2351,-3.2351,-3.235,0,-3.1306,-3.1381,-3.1463,-3.1519,-3.1605,-3.1657,-3.1741,-3.1789,-3.1856,-3.1923,-3.1955,-3.2017,-3.2079,-3.215,-3.2189,-3.228,-3.23,-3.2326,-3.2336,-3.2324,-3.232,-3.2352,-3.2348,-3.2354,-3.2353,-3.2353,-3.2352,0,-3.1351,-3.1408,-3.1511,-3.1604,-3.1629,-3.1689,-3.1769,-3.1825,-3.1872,-3.1957,-3.1979,-3.2052,-3.2137,-3.2194,-3.2302,-3.2329,-3.2429,-3.2437,-3.2403,-3.2408,-3.2451,-3.2446,-3.2581,-3.2603,-3.2512,-3.2512,-3.2513,0,-3.1398,-3.1457,-3.1557,-3.1605,-3.1652,-3.1728,-3.1781,-3.1835,-3.1889,-3.1983,-3.2029,-3.2117,-3.219,-3.2325,-3.2388,-3.2471,-3.2482,-3.2524,-3.2494,-3.2481,-3.2484,-3.2479,-3.2486,-3.2528,-3.2528,-3.2529,-3.253,0,-3.1476,-3.1503,-3.1577,-3.1663,-3.1726,-3.1796,-3.1866,-3.1903,-3.197,-3.2029,-3.2118,-3.2175,-3.2287,-3.2374,-3.2465,-3.2513,-3.2533,-3.2539,-3.2554,-3.2542,-3.252,-3.2534,-3.2416,-3.2535,-3.2534,-3.2534,-3.2534,-3.2533,-3.1524,-3.1579,-3.1659,-3.1742,-3.1801,-3.1867,-3.1925,-3.198,-3.2055,-3.2152,-3.218,-3.2273,-3.2351,-3.2475,-3.2525,-3.2599,-3.2594,-3.2616,-3.2622,-3.2626,-3.2627,-3.2509,-3.2615,-3.2615,-3.2615,-3.2615,-3.2615,0,-3.1605,-3.1659,-3.1735,-3.1833,-3.1899,-3.1914,-3.1993,-3.2047,-3.2129,-3.2201,-3.2273,-3.2376,-3.2462,-3.2533,-3.2622,-3.2667,-3.2679,-3.2689,-3.2686,-3.2697,-3.2626,-3.2604,-3.2678,-3.2678,-3.2678,-3.2678,-3.2678,-3.2678,-3.1654,-3.1748,-3.1785,-3.1909,-3.1963,-3.2055,-3.2099,-3.216,-3.2218,-3.2332,-3.2404,-3.2451,-3.2523,-3.2618,-3.2698,-3.2717,-3.2748,-3.2756,-3.2777,-3.2709,-3.2701,-3.2695,-3.2675,-3.2762,-3.2763,-3.2842,-3.2843,-3.2844]}]]